Regional Weather Roundup
Issued by NWS

Home | Current Version | Previous Version | Graphics & Text | Print | Product List | Glossary On
Versions: 1 2 3 4 5 6 7 8 9 10 11 12 13 14 15 16 17 18 19 20 21 22 23 24 25 26 27 28 29 30 31 32 33 34 35 36 37 38 39 40 41 42 43 44 45 46 47 48 49 50
000
ASUS44 KMEG 230310
RWRTN
TENNESSEE HOURLY STATE WEATHER ROUNDUP
NATIONAL WEATHER SERVICE MEMPHIS TN
1000 PM CDT FRI MAY 22 2015

TNZ002-004-019-021-049-052-054-088>092-230400-
WEST TENNESSEE

CITY           SKY/WX    TMP DP  RH WIND       PRES   REMARKS
MEMPHIS INTL   PTCLDY    66  50  56 NE7       30.24R
NWS MEMPHIS      N/A     59 N/A N/A MISG        N/A
JACKSON        PTCLDY    57  52  83 CALM      30.27R
DYERSBURG      PTCLDY    59  43  55 CALM      30.27S
PARIS          CLEAR     55  52  88 CALM      30.28R
LEXINGTON      CLEAR     54  54 100 CALM      30.25R
$$

TNZ008-025-027-028-033-062-065-066-230400-
NORTH MIDDLE TENNESSEE

CITY           SKY/WX    TMP DP  RH WIND       PRES   REMARKS
NASHVILLE      CLOUDY    64  49  57 CALM      30.28R
CLARKSVILLE    CLOUDY    63  49  60 E3        30.27R
SMYRNA         MOCLDY    58  51  77 CALM      30.29R
COOKEVILLE     CLEAR     54  52  94 NE3       30.29S
CROSSVILLE     PTCLDY    55  46  71 CALM      30.32R
$$

TNZ061-075-076-078-094-096-097-230400-
SOUTH MIDDLE TENNESSEE

CITY           SKY/WX    TMP DP  RH WIND       PRES   REMARKS
FAYETTEVILLE   CLEAR    N/A N/A N/A MISG      30.27R
TULLAHOMA      CLEAR     52  45  76 CALM      30.29R
WINCHESTER     CLEAR     55  50  82 CALM      30.29R
MCMINNVILLE    CLEAR     54  48  82 NE3       30.30R SQUALL
COLUMBIA       CLEAR     55  52  88 CALM      30.25S
SHELBYVILLE    CLEAR     55  50  82 E5        30.29R
$$

TNZ017-018-042-046-047-230400-
NORTHEAST TENNESSEE

CITY           SKY/WX    TMP DP  RH WIND       PRES   REMARKS
TRI CITIES     PTCLDY    54  46  74 CALM      30.32R
ELIZABETHTON   CLEAR     50  45  81 CALM      30.33R
$$

TNZ012-013-036-069-073-074-230400-
CENTRAL EAST TENNESSEE

CITY           SKY/WX    TMP DP  RH WIND       PRES   REMARKS
KNOXVILLE      PTCLDY    60  44  55 NE3       30.29R
OAK RIDGE      CLEAR     57  46  66 CALM      30.32R
GATLINBURG     CLEAR     54  46  76 CALM      30.31R
MORRISTOWN     CLEAR     57  48  72 CALM      30.32R
$$

TNZ083-085-099-230400-
SOUTHEAST TENNESSEE

CITY           SKY/WX    TMP DP  RH WIND       PRES   REMARKS
CHATTANOOGA    PTCLDY    60  49  66 CALM      30.28R
$$

SKY/WX REPORTED AS FAIR MEANS FEW OR NO CLOUDS BELOW
12 THOUSAND FEET.




USA.gov is the U.S. government's official web portal to all federal, state and local government web resources and services.